Buffalo, NY

8:01 AM EST on December 03, 2016 (GMT -0500)
Buffalo Niagara International

Weather History for KBUF - September, 2013

Change the Weather History Date:

Wednesday, September 4, 2013

  Actual Average Record
Temperature  
Mean Temperature 66 °F 66 °F  
Max Temperature 74 °F 75 °F 94 °F (1953)
Min Temperature 57 °F 57 °F 44 °F (1946)
Degree Days  
Heating Degree Days 0 2  
Month to date heating degree days 1 7  
Since 1 July heating degree days 17 34  
Cooling Degree Days 1 3  
Month to date cooling degree days 17 13  
Year to date cooling degree days 569 500  
Growing Degree Days 15 (Base 50)    
Moisture  
Dew Point 57 °F    
Average Humidity 68    
Maximum Humidity 86    
Minimum Humidity 49    
Precipitation  
Precipitation 0.05 in 0.12 in 1.32 in (2012)
Month to date precipitation 0.06 0.47  
Year to date precipitation 27.69 25.63  
Snow  
Snow 0.00 in 0.00 in 0.00 in ()
Month to date snowfall 0.0 0.0  
Since 1 July snowfall 0.0 0.0  
Since 1 September snowfall 0.0 0.0  
Snow Depth 0.00 in    
Sea Level Pressure  
Sea Level Pressure 29.98 in    
Wind  
Wind Speed 14 mph (WSW)    
Max Wind Speed 28 mph    
Max Gust Speed 37 mph    
Visibility 10 miles    
Events Rain    
T = Trace of Precipitation, MM = Missing Value Source: NWS Daily Summary

Daily Weather History Graph

Daily Weather History Graph

Search for Another Location

Airport or City:

Trip Planner

Search our weather history database for the weather conditions in past years. The results will help you decide how hot, cold, wet, or windy it might be!

Date:

Astronomy

Sep. 04, 2013 Rise Set
Actual Time 6:42 AM EDT 7:43 PM EDT
Civil Twilight 6:13 AM EDT 8:12 PM EDT
Nautical Twilight 5:39 AM EDT 8:47 PM EDT
Astronomical Twilight 5:03 AM EDT 9:23 PM EDT
Moon 5:53 AM EDT (9/4) 7:01 PM EDT (9/4)
Length of Visible Light 13h 58m
Length of Day
13h 01m
Waning Crescent, 1% of the Moon is Illuminated
Sep 4
Waning Crescent
Sep 5
New
Sep 12
First Quarter
Sep 19
Full
Sep 26
Last Quarter

Hourly Weather History & Observations

Time (EDT) Temp. Dew Point Humidity Pressure Visibility Wind Dir Wind Speed Gust Speed Precip Events Conditions
12:54 AM 60.1 °F 51.1 °F 72% 29.97 in 10.0 mi WSW 6.9 mph - N/A   Clear
1:54 AM 60.1 °F 52.0 °F 75% 29.97 in 10.0 mi WSW 6.9 mph - N/A   Clear
2:54 AM 62.1 °F 51.1 °F 67% 29.96 in 10.0 mi WSW 6.9 mph - N/A   Clear
3:54 AM 64.9 °F 55.9 °F 73% 29.96 in 10.0 mi WSW 9.2 mph - N/A   Clear
4:54 AM 57.9 °F 54.0 °F 87% 29.98 in 10.0 mi South 6.9 mph - N/A   Clear
5:54 AM 63.0 °F 55.0 °F 75% 29.99 in 10.0 mi West 10.4 mph - N/A   Clear
6:54 AM 61.0 °F 55.0 °F 81% 30.00 in 10.0 mi West 8.1 mph - N/A   Partly Cloudy
7:54 AM 63.0 °F 55.0 °F 75% 30.00 in 10.0 mi WSW 8.1 mph - N/A   Partly Cloudy
8:54 AM 66.0 °F 55.9 °F 70% 30.00 in 10.0 mi WSW 9.2 mph - N/A   Partly Cloudy
9:54 AM 69.1 °F 55.0 °F 61% 30.01 in 10.0 mi West 11.5 mph - N/A   Partly Cloudy
10:54 AM 71.1 °F 55.0 °F 57% 30.00 in 10.0 mi WSW 16.1 mph 27.6 mph N/A   Partly Cloudy
11:54 AM 72.0 °F 52.0 °F 49% 29.99 in 10.0 mi SW 20.7 mph 28.8 mph N/A   Scattered Clouds
12:54 PM 73.0 °F 53.1 °F 49% 29.99 in 10.0 mi WSW 21.9 mph 29.9 mph N/A   Partly Cloudy
1:54 PM 73.0 °F 55.9 °F 55% 29.99 in 10.0 mi WSW 23.0 mph 31.1 mph N/A   Partly Cloudy
2:54 PM 73.9 °F 57.9 °F 57% 29.98 in 10.0 mi SW 23.0 mph 34.5 mph N/A   Partly Cloudy
3:54 PM 73.0 °F 57.0 °F 57% 29.97 in 10.0 mi WSW 25.3 mph 32.2 mph N/A   Partly Cloudy
4:54 PM 73.0 °F 59.0 °F 61% 29.97 in 10.0 mi WSW 18.4 mph 29.9 mph N/A   Scattered Clouds
5:54 PM 72.0 °F 60.1 °F 66% 29.97 in 10.0 mi WSW 17.3 mph 33.4 mph N/A   Scattered Clouds
6:54 PM 71.1 °F 61.0 °F 70% 29.97 in 10.0 mi WSW 20.7 mph 29.9 mph N/A   Mostly Cloudy
7:54 PM 70.0 °F 62.1 °F 76% 29.98 in 10.0 mi WSW 20.7 mph 27.6 mph N/A   Mostly Cloudy
8:54 PM 70.0 °F 63.0 °F 78% 29.99 in 10.0 mi WSW 15.0 mph 20.7 mph 0.00 in   Overcast
9:54 PM 70.0 °F 63.0 °F 78% 29.98 in 10.0 mi West 10.4 mph - N/A   Overcast
10:54 PM 68.0 °F 63.0 °F 84% 29.99 in 10.0 mi NW 9.2 mph - 0.03 in Rain Light Rain
11:54 PM 64.9 °F 63.0 °F 93% 29.99 in 10.0 mi NNW 6.9 mph - 0.02 in   Overcast